{"data":{"norad_id":57829,"epoch":"2026-05-25T01:56:55.148640Z","epoch_age_seconds":72035,"freshness":"FRESH","line1":"1 57829U 23138X   26145.08119385 -.00000754  00000+0 -17878-4 0  9993","line2":"2 57829  43.0032 162.5680 0001366 281.4827  78.5871 15.27560630150255","mean_motion":15.2756063,"eccentricity":0.0001366,"inclination_deg":43.0032,"raan_deg":162.568,"arg_perigee_deg":281.4827,"mean_anomaly_deg":78.5871,"bstar":-1.7878e-5,"rev_number":15025,"period_min":94.267944048807,"perigee_km":482.16985145716,"apogee_km":484.04434334457,"semimajor_km":6861.2440974009,"source":"CELESTRAK","updated_at":"2026-05-25T13:38:18.412999Z"}}